sat.trackr.live / text

‹ back to catalog

STARLINK-1564

NORAD 46058 · 2020-055AH

PAYLOAD ACTIVE UNKNOWN

§ Identity

Operator
Country
US
Launch date
2020-08-07
Launch site
AFETR
Launch vehicle
Mass (kg)
RCS (m²)

Purposes: comms

External: N2YO · Heavens-Above · Gunter

§ Orbital elements

Epoch: 2026-09-20T01:34:54.998112Z

Period
94.01 min
Inclination
53.1573°
Eccentricity
0.0001480
Mean motion
15.31702192 rev/d
Perigee alt
469.7 km
Apogee alt
471.7 km
Semi-major
6,848.9 km
B*
2.7208e-5
RAAN
290.8722°
Arg perigee
90.8057°
Mean anomaly
269.3113°
Rev number
33,883

§ Raw data

STARLINK-15641 46058U 20055AH  26263.06591433  .00000479  00000+0  27208-4 0  99972 46058  53.1573 290.8722 0001480  90.8057 269.3113 15.31702192338832

JSON: /api/v1/satellites/46058 · /tle

For live sub-satellite position, see the globe view (requires WebGL).

§ Visibility from observer

Set your observer location to see the next 7 days of passes ≥ 10°. The values pass through the URL so the page stays shareable.

No JS? Fill the form by hand. The geolocation button needs JavaScript.